一网星座-0121星 (ONEWEB-0121 )

导读

ONEWEB-0121是英国OneWeb星座一期的低轨通信卫星,于2020年12月18日发射。作为OneWeb全球卫星互联网布局的组成部分,该卫星运行于约1200公里轨道高度,配备Ku/Ka波段天线,单星通信能力约7.5Gbps,可支持高速宽带接入,为全球偏远地区、海事航空等场景提供低延迟互联网连接,设计使用寿命5年,助力OneWeb构建覆盖全球的低轨卫星通信网络。

Basic Information
目录编号:
47267
目录名称:
ONEWEB-0121
国际标识:
2020-100K
轨道中心:
EARTH
卫星名称:
一网星座-0121星
卫星全名:
一网星座-0121星 (ONEWEB-0121 )
卫星状态:
在轨 (已飞行2097 天)
发射日期:
2020-12-18 UTC
国别 :
英国 (GB)
星等 :
--
This satellite is enrolled in the Space Conjunction Data Service (SCDS) and the current flight risk assessment level is: No High Risk
Orbit Information
数据来源 国际轨道数据 AOE轨道数据
星历时间 2026-09-15T19:33:46+0800
10小时前
查看轨道信息
2026-09-14T10:00:00+0800
1天前
查看轨道信息
半长轴 7591.859km 7591.856km
偏心率 0.0002208 0.0002212
轨道倾角 87.899° 87.900°
近地点辐角 98.198° 99.876°
升交点赤经 332.735° 333.013°
平近点角 261.940° 136.595°
近地点 1212.045km 1212.039km
远地点 1215.399km 1215.399km
周期 109.719分钟 109.719分钟
每日圈数 13.124434 13.124443
Detailed Information
平衡模式:
三轴稳定
覆盖范围:
全球
运营商:
一网卫星公司
运营商所在国:
英国
制造商(研发单位):
一网卫星公司
制造商所在国:
英国
使用方式:
暂无
Satellite Introduction
OneWeb卫星网络由648颗重约125公斤的微型卫星组成,运行在1200公里的轨道上。 每颗卫星都能够提供至少每秒8千兆位的吞吐量,以使用其高吞吐量的Ku频段有效载荷为家庭和移动平台提供互联网接入。该卫星仍在工作。
2D Orbit Map
3D Orbit Map
Orbit Altitude Analysis Chart
Orbit Inclination Analysis Chart
Orbit Comprehensive Analysis Chart
View Comprehensive Chart
Miss Distance Evolution Trend with All Objects Subscribe to Flight Safety Assessment
Collision Probability Evolution Trend with All Objects Subscribe to Flight Safety Assessment